Regional Weather Roundup
Issued by NWS

Home | Current Version | Previous Version | Graphics & Text | Print | Product List | Glossary On
Versions: 1 2 3 4 5 6 7 8 9 10 11 12 13 14 15 16 17 18 19 20 21 22 23 24 25 26 27
000
ASUS45 KBOU 281507
RWRCO

WEATHER ROUNDUP FOR COLORADO
NATIONAL WEATHER SERVICE DENVER/BOULDER CO
800 AM MST TUE FEB 28 2017

NOTE: "FAIR" INDICATES FEW OR NO CLOUDS BELOW 12000 FEET WITH NO
SIGNIFICANT WEATHER AND/OR OBSTRUCTIONS TO VISIBILITY.

COZ001>005-013-030-031-281600-
...NORTHWEST COLORADO...

CITY           SKY/WX    TMP DP  RH WIND       PRES   REMARKS
CRAIG          CLOUDY    16  11  80 CALM      29.78R
HAYDEN         FAIR      16  10  79 CALM      29.76R
MEEKER         CLOUDY    22  14  71 NE7       29.75R WCI  13
MOUNT WERNER   NOT AVBL
STEAMBOAT SPGS CLOUDY    15  13  90 CALM      29.74R
WALDEN         NOT AVBL
$$

COZ006>008-011-281600-
...WEST CENTRAL VALLEYS...

CITY           SKY/WX    TMP DP  RH WIND       PRES   REMARKS
GRAND JUNCTION LGT SNOW  28  28 100 SW3       29.79R VSB 1
MONTROSE       LGT SNOW  28  28 100 N8        29.75R FOG     WCI  20
EAGLE          SNOW      21  19  93 W6        29.74R VSB 1/2 WCI  14
RIFLE          LGT SNOW  27  25  92 SW3       29.77S VSB 3/4
DELTA          SNOW      33  32  96 CALM      29.73R VSB 1/2
NUCLA          LGT SNOW  32  32 100 CALM      29.76R
$$

COZ017>023-064>068-281600-
...SOUTHWEST COLORADO...

CITY           SKY/WX    TMP DP  RH WIND       PRES   REMARKS
DURANGO        CLOUDY    30  26  85 SW12      29.73R WCI  20
CORTEZ         LGT SNOW  32  32 100 SE5       29.77R FOG     WCI  27
PAGOSA SPRINGS SNOW      31  31 100 SW7       29.70S VSB 1/2 WCI  25
TELLURIDE      SNOW      23  22  96 CALM      29.73R VSB 1/2
WOLF CREEK PAS CLOUDY    16  16 100 S26G36    29.69S WCI  -3
$$

COZ009-010-012-014-032>034-037-058>063-281600-
...CENTRAL COLORADO...

CITY           SKY/WX    TMP DP  RH WIND       PRES   REMARKS
ASPEN          LGT SNOW  22  19  89 N5        29.67R VSB 1   WCI  16
BUENA VISTA    CLOUDY    29  25  86 CALM      29.64R
COPPER MTN     LGT SNOW  18  10  73 MISG      29.61R VSB 3/4
BERTHOUD PASS  LGT SNOW   7  -4  61 NW12      29.59S VSB 1   WCI  -9
COTTONWOOD PAS CLOUDY    27  19  74 W8        29.63S HAZE    WCI  18
GUNNISON       FAIR      27  23  85 SW6       29.69R WCI  20
KREMMLING      LGT SNOW  23  19  86 CALM      29.72R VSB 1
LEADVILLE      FLURRIES  18  16  92 S7        29.61R WCI   9
MONARCH PASS   CLOUDY    14  10  85 SW18G25   29.73S WCI  -3
SALIDA         CLOUDY    34  19  54 SW6       29.72S WCI  29
SUNLIGHT       NOT AVBL
WILKERSON PASS FOG       18  14  86 SW9G16    29.64S VSB 1   WCI   6
$$

COZ069>075-281600-
...SAN LUIS VALLEY/SANGRE DE CRISTO MOUNTAINS...

CITY           SKY/WX    TMP DP  RH WIND       PRES   REMARKS
ALAMOSA        CLOUDY    33  32  96 S16       29.65S WCI  23
LA VETA PASS   HVY SNOW  27  23  86 S35G62    29.65R VSB 1/4 WCI   9
SAGUACHE       MIX PCPN  28  25  86 NW14      29.68S WCI  17
$$

COZ035-036-038>040-281600-
...NORTHERN COLORADO FRONT RANGE...

CITY           SKY/WX    TMP DP  RH WIND       PRES   REMARKS
DENVER INTL AP CLOUDY    29  19  66 S3        29.69R
DMNS CITY PARK   N/A     32  15  51 E8        29.70R WCI  24
AURORA         CLOUDY    28  19  70 SE3       29.70R
FRONT RANGE AP PTSUNNY   30  21  69 CALM      29.70R
ERIE MUNI ARPT CLOUDY    32  19  58 SE6       29.69S WCI  27
BOULDER MUN AP PTSUNNY   32  21  64 CALM      29.68S
CENTENNIAL     CLOUDY    28  18  66 SE5       29.69R WCI  23
BROOMFIELD     CLOUDY    30  19  64 E5        29.69S WCI  25
FORT COLLINS   FAIR      32  22  66 S3        29.70S
LONGMONT       NOT AVBL
$$

COZ041-046-047-076>085-087-088-281600-
...PIKES PEAK/PALMER DIVIDE AND SOUTHERN FOOTHILLS...

CITY           SKY/WX    TMP DP  RH WIND       PRES   REMARKS
COLO. SPRINGS  PTSUNNY   32   9  38 N3        29.69R
A. F. ACADEMY  FLURRIES  24  21  85 CALM      29.67S
SCHRIEVER AFB  PTSUNNY   29  12  50 N10G20    29.69R WCI  19
ELLICOTT       CLOUDY   N/A N/A N/A E17       29.67R
FALCON         CLOUDY    28   8  41 NE8       29.68S WCI  20
FORT CARSON    LGT SNOW  31  19  59 CALM      29.69R
LIMON          CLOUDY   N/A N/A N/A N13       29.70R
MONUMENT HILL  CLOUDY    25  14  63 SE10      29.67S WCI  15
TRINIDAD       FAIR      46  27  47 W24G35    29.64R
$$

COZ042>045-048>051-090-091-281600-
...NORTHEAST COLORADO...

CITY           SKY/WX    TMP DP  RH WIND       PRES   REMARKS
GREELEY ARPT   FAIR      28  23  81 E3        29.72S
AKRON          CLOUDY    28  19  69 N13       29.71S WCI  17
BURLINGTON     CLOUDY    32  18  56 N14       29.71R WCI  22
WRAY           NOT AVBL
STERLING       FAIR      25  23  93 CALM      29.73S
HOLYOKE        FAIR      32  23  69 NW8       29.74S WCI  25
FORT MORGAN    PTSUNNY   28  20  70 N3        29.72F
$$

COZ086-089-092>099-281600-
...SOUTHEAST COLORADO...

CITY           SKY/WX    TMP DP  RH WIND       PRES   REMARKS
PUEBLO         PTSUNNY   32  16  51 N3        29.71R
LA JUNTA       FAIR      34  20  56 E6        29.73R WCI  29
LAMAR          FAIR      36  21  54 E6        29.71R
SPRINGFIELD      N/A     37  22  54 NE7       29.69R
$$




USA.gov is the U.S. government's official web portal to all federal, state and local government web resources and services.